CZ-2C R/B (49030 NORAD) Tracking and Keplerian Element Data

This shows tracking and keplerian element data for the satellite.

Feedback or suggestion? Click here.




ElementValue
Catalog49030
NameCZ-2C R/B
Epoch Orbit157
Epoch Day210.42117636
Epoch Year2021
RAAN213.1433
Inclination35.1317
Eccentricity0.009452
Argument of Perigee135.9866
Mean Anonmoly224.8421
Mean Motion15.12831917
Decay Rate6.63E-06
L11 49030U 21065E 21210.42117636 .00000663 00000-0 35272-4 0 9994
L22 49030 35.1317 213.1433 0094520 135.9866 224.8421 15.12831917 1577

Live tracking and technical data element details for CZ-2C R/B (NORAD 49030). CZ-2C R/B can be tracked NOW for your location showing map with azimuth and elevation plus other details from your city location.

Track the satellite on the map from your city or location and see movement details for azimuth, elevation, latitude, longitude, range, height, and movement on the map or in text.







IsCatalogInMostPopularTable: catalog: 49030, numindb: 1
Update: records affected: 1



GetName: 49030 CZ-2C R/B

Hit Count: updated at: Sat, 31 Jul 2021 16:40:14 GMT